Lytton, British Columbia

2:45 AM PDT on July 21, 2017 (GMT -0700)
Lytton

Weather History for CWLY - May, 2013

Change the Weather History Date:

Friday, May 24, 2013

  Actual Average Record
Temperature  
Mean Temperature 56 °F -  
Max Temperature 71 °F 72 °F 89 °F (1999)
Min Temperature 42 °F 51 °F 42 °F (2002)
Degree Days  
Heating Degree Days 8    
Growing Degree Days 6 (Base 50)    
Moisture  
Dew Point 40 °F    
Average Humidity 62    
Maximum Humidity 100    
Minimum Humidity 19    
Precipitation  
Precipitation 0.00 in 0.02 in - ()
Sea Level Pressure  
Sea Level Pressure 29.93 in    
Wind  
Wind Speed 6 mph ()    
Max Wind Speed 22 mph    
Max Gust Speed 33 mph    
Visibility 9.0 miles    
Events      
Averages and records for this station are not official NWS values.
T = Trace of Precipitation, MM = Missing Value Source: Averaged Metar Reports

Daily Weather History Graph

Daily Weather History Graph

Search for Another Location

Airport or City:

Trip Planner

Search our weather history database for the weather conditions in past years. The results will help you decide how hot, cold, wet, or windy it might be!

Date:

Astronomy

May. 24, 2013 Rise Set
Actual Time 5:07 AM PDT 8:59 PM PDT
Civil Twilight 4:26 AM PDT 9:41 PM PDT
Nautical Twilight 3:28 AM PDT 10:39 PM PDT
Astronomical Twilight 1:55 AM PDT 12:15 AM PDT
Moon 8:44 PM PDT (5/24) 4:50 AM PDT (5/24)
Length of Visible Light 17h 14m
Length of Day
15h 51m
Full, 100% of the Moon is Illuminated
May 24
Full
May 24
Full
May 31
Last Quarter
Jun 8
New
Jun 16
First Quarter

Hourly Weather History & Observations

Time (PDT) Temp. Windchill Dew Point Humidity Pressure Visibility Wind Dir Wind Speed Gust Speed Precip Events Conditions
12:00 AM 51.8 °F - 44.6 °F 76% 29.96 in 9.0 mi North 3.5 mph - N/A   Partly Cloudy
1:00 AM 48.2 °F - 44.6 °F 87% 29.96 in 9.0 mi NNE 3.5 mph - N/A   Partly Cloudy
2:00 AM 47 °F - 44 °F 86% 29.97 in 9 mi Calm Calm - -  
2:00 AM 46.4 °F - 44.6 °F 93% 29.97 in 9.0 mi North 2.3 mph - N/A   Clear
3:00 AM 46.4 °F 45.2 °F 42.8 °F 87% 29.98 in 9.0 mi SSE 3.5 mph - N/A   Clear
4:00 AM 44.6 °F - 42.8 °F 93% 29.99 in 9.0 mi Calm Calm - N/A   Clear
5:00 AM 42 °F - 42 °F 98% 30.00 in 9 mi NNE 5.8 mph - -  
5:00 AM 42.8 °F 39.3 °F 41.0 °F 93% 30.00 in 9.0 mi NNE 5.8 mph - N/A   Clear
6:00 AM 42.8 °F - 41.0 °F 93% 29.99 in 9.0 mi Calm Calm - N/A   Partly Cloudy
6:17 AM 42.8 °F - 41.0 °F 93% 29.98 in 9.0 mi Calm Calm - N/A   Mostly Cloudy
6:45 AM 42.8 °F - 42.8 °F 100% 29.98 in 9.0 mi SSE 2.3 mph - N/A   Partly Cloudy
6:57 AM 42.8 °F 41.1 °F 42.8 °F 100% 29.99 in 9.0 mi North 3.5 mph - N/A   Mostly Cloudy
7:00 AM 42.8 °F 41.1 °F 42.8 °F 100% 30.01 in 9.0 mi North 3.5 mph - N/A   Overcast
7:06 AM 42.8 °F - 42.8 °F 100% 29.99 in 9.0 mi Calm Calm - N/A   Partly Cloudy
8:00 AM 46.4 °F - 44.6 °F 93% 30.01 in 9.0 mi Calm Calm - N/A   Overcast
9:00 AM 50.0 °F - 44.6 °F 82% 30.00 in 9.0 mi North 3.5 mph - N/A   Mostly Cloudy
10:00 AM 55.4 °F - 41.0 °F 58% 29.97 in 9.0 mi Calm Calm - N/A   Clear
11:00 AM 60 °F - 41 °F 38% 29.94 in 9 mi Calm Calm - -  
11:00 AM 60.8 °F - 41.0 °F 48% 29.94 in 9.0 mi Calm Calm - N/A   Clear
12:00 PM 62.6 °F - 41.0 °F 45% 29.90 in 9.0 mi SSE 3.5 mph - N/A   Clear
1:00 PM 68.0 °F - 37.4 °F 33% 29.87 in 9.0 mi South 16.1 mph 21.9 mph N/A   Clear
2:00 PM 69 °F - 37 °F 20% 29.85 in 9 mi South 13.8 mph - -  
2:00 PM 69.8 °F - 37.4 °F 31% 29.85 in 9.0 mi South 16.1 mph 23.0 mph N/A   Partly Cloudy
3:00 PM 71.6 °F - 37.4 °F 29% 29.84 in 9.0 mi South 16.1 mph 23.0 mph N/A   Partly Cloudy
4:00 PM 68.0 °F - 33.8 °F 28% 29.82 in 9.0 mi South 17.3 mph 25.3 mph N/A   Partly Cloudy
5:00 PM 68 °F - 35 °F 19% 29.83 in 9 mi South 16.1 mph - -  
5:00 PM 68.0 °F - 35.6 °F 30% 29.83 in 9.0 mi South 17.3 mph 27.6 mph N/A   Partly Cloudy
6:00 PM 66.2 °F - 35.6 °F 32% 29.83 in 9.0 mi South 17.3 mph 32.2 mph N/A   Partly Cloudy
7:00 PM 66.2 °F - 37.4 °F 35% 29.84 in 9.0 mi South 21.9 mph 33.4 mph N/A   Clear
8:00 PM 63 °F - 38 °F 27% 29.85 in 9 mi South 18.4 mph - -  
8:00 PM 62.6 °F - 37.4 °F 39% 29.85 in 9.0 mi South 20.7 mph 28.8 mph N/A   Clear
9:00 PM 60.8 °F - 37.4 °F 42% 29.88 in 9.0 mi South 18.4 mph 27.6 mph N/A   Clear
10:00 PM 59.0 °F - 39.2 °F 48% 29.90 in 9.0 mi South 15.0 mph 21.9 mph N/A   Clear
11:00 PM 57 °F - 40 °F 41% 29.92 in 9 mi SSW 15.0 mph - -  
11:00 PM 57.2 °F - 39.2 °F 51% 29.92 in 9.0 mi SSW 15.0 mph 29.9 mph N/A   Clear